Ceiba, PR

10:16 PM AST on August 25, 2016 (GMT -0400)
Roosevelt Roads Ns

Weather History for TJNR - November, 2012

Change the Weather History Date:

Wednesday, November 21, 2012

  Actual Average Record
Temperature  
Mean Temperature 80 °F -  
Max Temperature 87 °F 83 °F 88 °F (2006)
Min Temperature 73 °F 69 °F 69 °F (2001)
Cooling Degree Days 15    
Growing Degree Days 30 (Base 50)    
Moisture  
Dew Point 74 °F    
Average Humidity 87    
Maximum Humidity 100    
Minimum Humidity 67    
Precipitation  
Precipitation 1.40 in - - ()
Sea Level Pressure  
Sea Level Pressure 29.86 in    
Wind  
Wind Speed 4 mph (WSW)    
Max Wind Speed 10 mph    
Max Gust Speed -    
Visibility 7 miles    
Events Fog , Rain    
Averages and records for this station are not official NWS values.
T = Trace of Precipitation, MM = Missing Value Source: NWS Daily Summary

Daily Weather History Graph

Daily Weather History Graph

Search for Another Location

Airport or City:

Trip Planner

Search our weather history database for the weather conditions in past years. The results will help you decide how hot, cold, wet, or windy it might be!

Date:

Astronomy

Nov. 21, 2012 Rise Set
Actual Time 6:32 AM AST 5:44 PM AST
Civil Twilight 6:09 AM AST 6:07 PM AST
Nautical Twilight 5:42 AM AST 6:34 PM AST
Astronomical Twilight 5:16 AM AST 7:00 PM AST
Moon 1:12 PM AST (11/21) 12:39 AM AST (11/21)
Length of Visible Light 11h 58m
Length of Day
11h 12m
First Quarter, 61% of the Moon is Illuminated
Nov 21
First Quarter
Nov 28
Full
Dec 6
Last Quarter
Dec 13
New
Dec 20
First Quarter

Hourly Weather History & Observations

Time (AST) Temp. Heat Index Dew Point Humidity Pressure Visibility Wind Dir Wind Speed Gust Speed Precip Events Conditions
12:53 AM 75.0 °F - 73.0 °F 94% 29.86 in 10.0 mi West 3.5 mph - N/A   Clear
1:53 AM 73.9 °F - 73.0 °F 97% 29.84 in 10.0 mi SW 3.5 mph - N/A   Clear
2:53 AM 73.9 °F - 72.0 °F 93% 29.82 in 8.0 mi WSW 3.5 mph - N/A   Clear
3:53 AM 73.0 °F - 72.0 °F 96% 29.82 in 9.0 mi Calm Calm - N/A   Clear
4:53 AM 73.0 °F - 72.0 °F 96% 29.82 in 9.0 mi Calm Calm - N/A   Clear
5:53 AM 73.0 °F - 72.0 °F 96% 29.83 in 9.0 mi Calm Calm - N/A   Clear
6:53 AM 73.0 °F - 72.0 °F 96% 29.85 in 7.0 mi Calm Calm - N/A   Clear
7:53 AM 77.0 °F - 75.0 °F 94% 29.88 in 10.0 mi Calm Calm - N/A   Partly Cloudy
8:53 AM 82.9 °F 90.2 °F 75.0 °F 77% 29.89 in 10.0 mi Calm Calm - N/A   Clear
9:53 AM 84.0 °F 91.2 °F 73.9 °F 72% 29.90 in 10.0 mi North 3.5 mph - N/A   Overcast
10:53 AM 84.9 °F 93.3 °F 75.0 °F 72% 29.89 in 10.0 mi Variable 3.5 mph - N/A   Partly Cloudy
11:53 AM 84.0 °F 91.9 °F 75.0 °F 74% 29.87 in 10.0 mi NE 4.6 mph - 0.00 in   Overcast
12:30 PM 86.0 °F 95.1 °F 75.2 °F 70% 29.85 in 10.0 mi ENE 6.9 mph - N/A   Mostly Cloudy
12:37 PM 84.2 °F 90.9 °F 73.4 °F 70% 29.85 in 10.0 mi ENE 6.9 mph - N/A   Scattered Clouds
12:53 PM 86.0 °F 95.1 °F 75.0 °F 70% 29.84 in 10.0 mi ENE 8.1 mph - N/A   Partly Cloudy
1:53 PM 87.1 °F 96.3 °F 75.0 °F 67% 29.82 in 10.0 mi NE 8.1 mph - N/A   Scattered Clouds
2:53 PM 86.0 °F 95.1 °F 75.0 °F 70% 29.81 in 10.0 mi ENE 6.9 mph - N/A   Clear
3:53 PM 82.9 °F 89.4 °F 73.9 °F 74% 29.81 in 10.0 mi East 4.6 mph - N/A   Clear
4:53 PM 82.9 °F 89.4 °F 73.9 °F 74% 29.82 in 10.0 mi Variable 4.6 mph - N/A   Scattered Clouds
5:53 PM 80.1 °F 85.1 °F 75.0 °F 85% 29.84 in 10.0 mi NNW 6.9 mph - N/A   Mostly Cloudy
6:53 PM 79.0 °F - 73.9 °F 84% 29.85 in 10.0 mi SSW 3.5 mph - N/A   Mostly Cloudy
7:12 PM 78.8 °F - 75.2 °F 89% 29.86 in 2.5 mi West 8.1 mph - 0.10 in Rain Rain
7:20 PM 78.8 °F - 75.2 °F 89% 29.86 in 4.0 mi WSW 8.1 mph - 0.13 in Rain Rain
7:29 PM 78.8 °F - 75.2 °F 89% 29.86 in 6.0 mi WSW 6.9 mph - 0.14 in Rain Light Rain
7:38 PM 77.0 °F - 75.2 °F 94% 29.87 in 2.5 mi WSW 8.1 mph - 0.23 in Rain Heavy Rain
7:53 PM 77.0 °F - 75.0 °F 94% 29.88 in 1.8 mi Calm Calm - 0.35 in Rain Rain
8:00 PM 75.2 °F - 75.2 °F 100% 29.88 in 1.2 mi Variable 3.5 mph - 0.09 in Rain Heavy Rain
8:13 PM 75.2 °F - 73.4 °F 94% 29.88 in 0.5 mi SSW 5.8 mph - 0.41 in Fog , Rain Heavy Rain
8:30 PM 75.2 °F - 75.2 °F 100% 29.89 in 1.0 mi SW 9.2 mph - 0.81 in Rain Heavy Rain
8:37 PM 75.2 °F - 75.2 °F 100% 29.89 in 1.5 mi WSW 10.4 mph - 0.91 in Rain Heavy Rain
8:50 PM 75.2 °F - 75.2 °F 100% 29.89 in 2.5 mi WSW 9.2 mph - 0.99 in Rain Rain
8:53 PM 75.9 °F - 75.0 °F 97% 29.89 in 2.5 mi WSW 9.2 mph - 1.00 in Rain Rain
9:53 PM 75.9 °F - 75.0 °F 97% 29.89 in 10.0 mi West 3.5 mph - 0.05 in   Overcast
10:53 PM 75.9 °F - 75.0 °F 97% 29.89 in 10.0 mi Calm Calm - N/A   Overcast
11:53 PM 75.9 °F - 73.9 °F 94% 29.87 in 10.0 mi Calm Calm - N/A   Overcast